Theta_e
297 296 295 294 295 294 294 294 292 289 289 292 291 292 292 292 291 291 291 290 291 291 292 293 293 294 295 297 297 297 298 298 298 298 298 298 298 299
295 294 293 293 293 293 292 292 292 291 288 290 291 290 290 290 290 291 291 290 289 289 291 291 292 293 294 295 295 295 296 296 296 295 296 296 297 297
292 292 291 292 291 291 291 291 290 290 288 289 290 290 289 289 290 290 290 290 290 288 289 290 291 291 292 293 293 293 293 294 294 293 293 294 295 295
290 290 289 289 289 289 290 289 289 289 288 285 287 288 288 289 289 288 289 289 289 288 288 289 289 289 290 292 292 291 291 291 291 291 291 292 292 293
289 289 288 288 287 288 288 288 288 287 288 287 286 288 288 288 288 288 287 288 288 287 287 287 288 288 288 290 290 290 289 289 289 289 289 289 289 290
288 288 287 288 287 287 287 288 287 287 287 286 286 286 287 287 288 285 284 287 286 287 286 286 286 286 287 287 288 287 288 289 288 288 287 286 286 286
287 286 287 286 287 288 287 287 287 286 286 285 285 285 285 284 283 284 283 284 285 285 284 286 286 287 286 285 286 286 287 287 287 287 286 285 284 284
285 285 286 285 286 286 286 286 287 285 284 284 285 283 283 284 285 283 282 280 280 287 281 283 286 285 285 284 285 285 286 285 285 286 286 284 283 282
285 285 284 284 285 286 286 286 285 286 286 286 284 283 283 284 284 282 282 280 281 283 280 281 285 283 285 283 283 284 284 283 283 284 284 284 282 281
285 285 285 285 285 285 285 285 285 286 286 286 286 286 286 287 285 284 281 280 281 282 280 278 283 282 284 284 282 282 282 281 281 282 282 282 282 280
285 285 285 285 285 286 285 284 285 286 287 287 288 286 285 285 284 283 280 278 279 281 281 278 280 280 282 282 282 280 280 280 279 280 280 280 281 279
284 284 284 285 285 286 285 285 283 285 285 285 285 286 285 283 282 283 282 278 278 278 279 278 279 278 277 282 281 280 279 278 278 278 278 279 279 278
284 283 284 286 286 286 286 285 285 286 285 285 285 285 284 283 282 282 281 280 278 277 280 278 278 277 277 277 279 280 278 276 275 275 276 276 277 278
284 285 285 285 285 286 285 286 287 285 285 284 283 282 283 283 283 282 282 281 281 280 281 277 276 276 275 274 275 278 277 276 274 274 273 274 275 276
285 285 285 284 285 285 286 286 283 283 282 281 280 280 281 283 281 281 281 280 278 279 279 278 276 276 275 274 274 274 273 275 273 272 272 272 272 273
284 284 284 284 284 284 282 281 281 280 280 280 281 281 281 279 279 280 278 279 277 278 278 277 276 275 274 275 274 273 274 271 272 271 271 272 273 273
283 282 281 281 280 280 279 278 278 277 277 278 278 278 278 278 277 278 277 277 275 276 276 276 276 275 274 273 272 273 272 271 271 270 269 270 271 272
281 279 279 280 279 279 278 277 276 274 276 276 277 276 275 276 276 276 276 275 274 275 275 275 273 272 273 274 274 272 272 271 271 269 269 268 269 271
280 279 279 279 278 277 275 274 274 274 273 273 274 275 274 274 273 273 274 274 274 274 274 273 271 270 269 268 272 272 269 270 269 268 268 268 268 269
281 279 277 277 276 274 273 272 272 271 271 272 272 273 272 272 272 272 273 272 272 272 271 271 270 270 268 269 268 270 271 269 268 268 267 268 269 270
276 276 276 274 273 271 271 270 270 270 270 270 270 270 270 270 269 270 270 267 268 269 268 269 270 267 268 266 265 267 269 271 270 268 267 266 266 267
277 274 272 271 270 269 268 268 267 267 267 268 268 269 268 268 268 267 268 268 267 268 268 268 268 267 266 265 265 266 266 268 268 270 271 269 267 266
274 273 271 268 267 267 266 266 266 267 267 267 267 267 266 265 266 267 267 266 265 265 265 265 267 266 265 265 264 264 264 264 265 265 266 270 271 272
Wind_Speed
8 7 6 4 4 3 3 0 1 1 2 4 2 6 6 7 8 11 11 16 16 17 19 20 21 21 22 23 25 29 29 30 31 32 33 34 35 35
6 8 7 5 5 4 4 3 1 1 1 1 2 5 6 6 6 10 9 11 12 15 19 19 20 18 20 21 23 25 28 29 30 31 32 33 34 34
7 8 8 8 5 4 4 3 3 0 1 1 2 4 6 6 7 8 7 8 8 14 18 17 16 17 19 19 22 24 26 27 28 29 31 32 33 34
10 9 9 6 6 6 4 5 4 2 0 3 4 3 5 7 8 8 8 8 8 10 15 14 14 15 18 20 21 22 25 26 27 27 28 30 32 33
10 9 9 8 7 5 5 4 4 3 2 2 3 3 4 4 6 6 8 9 8 10 12 12 12 12 15 18 20 23 22 24 25 26 27 29 30 32
8 8 8 8 8 8 5 5 4 3 2 2 3 3 3 5 4 6 8 8 9 6 9 8 9 10 11 15 17 20 23 23 25 26 27 28 29 31
8 7 7 7 6 6 5 5 4 3 2 2 2 3 4 6 6 6 7 8 8 3 8 6 5 6 6 10 13 19 21 23 24 25 25 26 27 29
10 8 8 7 8 8 6 5 4 4 3 3 2 3 4 5 5 6 6 7 5 3 7 8 3 6 5 5 14 17 20 21 22 23 24 25 26 26
10 9 7 5 6 7 8 7 7 6 6 4 3 4 5 4 4 7 7 7 7 7 6 6 3 6 4 3 12 15 17 18 20 22 24 26 25 24
10 9 8 8 9 7 7 6 7 5 5 4 4 4 4 2 3 4 6 7 9 5 3 4 5 6 6 4 8 14 15 17 18 20 23 25 25 22
8 8 8 9 11 12 6 6 6 6 5 6 8 6 5 3 5 4 6 5 6 3 1 3 4 8 7 4 3 9 11 15 16 19 21 23 25 20
6 7 11 9 12 12 6 5 7 6 4 3 4 6 4 4 8 8 6 6 5 5 4 4 5 5 6 1 3 4 6 12 13 16 18 21 23 11
7 7 7 16 13 14 12 6 8 4 5 5 6 5 4 4 4 5 6 6 6 7 1 2 3 4 4 6 6 3 6 6 7 9 15 17 18 17
8 6 7 14 13 14 11 13 14 9 3 5 5 7 7 6 5 6 7 7 8 10 5 2 4 4 5 7 6 6 7 4 6 7 7 11 14 14
5 8 11 12 14 13 14 9 4 3 5 7 7 7 7 6 4 5 7 7 7 9 7 8 6 6 6 5 7 8 8 3 4 6 6 7 7 8
9 7 9 10 10 8 4 5 4 5 6 7 7 6 6 5 5 5 6 5 6 6 6 8 7 6 7 7 6 8 5 4 5 5 5 4 5 5
7 5 6 6 7 7 6 6 5 4 5 5 6 7 7 6 6 5 6 5 6 6 5 5 7 7 7 8 6 6 5 4 3 4 4 4 3 4
7 7 8 8 8 8 7 6 5 5 5 5 6 6 6 6 5 5 6 6 7 7 6 4 3 4 4 7 11 6 5 4 3 3 3 4 4 2
9 8 8 7 7 7 6 6 5 4 2 4 5 6 5 5 5 6 6 6 6 6 5 3 4 4 6 7 3 6 5 3 3 4 3 4 5 3
9 8 8 7 7 6 6 6 5 4 5 5 6 5 4 5 5 6 6 6 5 5 5 4 4 5 5 4 3 0 5 4 4 4 3 3 5 9
8 8 7 7 7 6 6 6 6 6 6 5 5 5 5 5 6 6 6 5 4 5 6 5 2 4 1 1 3 4 2 10 7 4 2 4 4 3
9 8 7 7 7 7 6 6 6 6 7 6 6 5 5 5 5 5 5 5 5 5 6 4 3 3 3 4 6 7 4 3 6 12 13 12 4 3
9 8 7 7 7 7 7 7 7 7 7 6 5 5 5 5 5 5 4 4 4 4 5 5 4 4 6 5 6 6 7 7 3 5 6 14 18 19
Wind_Direction
132 131 125 120 113 112 114 218 318 202 193 128 341 26 355 349 6 339 343 349 351 354 351 355 354 357 357 357 6 6 2 4 5 360 356 356 356 355
140 141 133 126 123 130 129 140 83 290 220 39 39 348 349 336 342 338 344 326 357 354 357 358 356 355 353 3 1 5 1 2 2 360 358 357 356 354
143 143 137 143 146 144 142 148 122 151 277 143 306 341 333 340 344 348 346 342 351 356 354 354 358 359 358 357 1 5 2 1 359 358 358 360 359 357
155 150 143 141 149 156 162 149 136 130 339 316 299 330 338 344 342 343 347 343 347 347 342 350 354 0 0 0 4 5 1 360 359 360 359 1 0 360
159 155 153 159 165 164 166 157 150 155 147 264 309 318 330 348 338 347 346 342 342 339 336 339 351 352 358 358 4 3 5 0 360 0 1 359 358 358
152 151 156 173 169 169 161 159 158 163 180 248 283 295 324 350 348 357 346 347 333 327 332 326 329 331 343 351 356 354 356 4 2 2 1 3 358 358
148 152 163 171 165 167 174 169 175 187 201 255 279 309 340 348 354 346 339 331 312 291 329 327 311 332 345 347 342 351 354 353 358 1 4 2 2 359
157 160 161 168 179 168 176 179 196 192 220 256 297 323 321 326 343 337 323 329 323 89 340 310 296 317 337 340 342 352 355 356 355 357 3 5 0 2
163 164 166 182 191 187 196 198 211 230 251 266 252 287 301 336 316 307 309 301 290 312 326 294 311 310 339 320 350 356 358 0 358 358 358 3 2 360
167 168 171 184 196 191 201 215 223 230 241 228 228 256 268 285 272 293 293 292 286 267 302 279 333 304 327 296 337 358 358 3 3 1 0 358 2 0
169 174 181 195 192 201 206 225 235 240 252 256 245 252 293 274 270 268 267 280 294 277 196 288 313 315 304 298 310 344 355 3 2 5 1 0 357 1
167 183 198 202 198 210 216 215 239 239 228 252 246 249 239 254 268 233 252 260 283 280 140 282 324 342 315 119 298 340 341 358 357 2 2 2 0 359
180 190 198 209 210 219 228 220 232 224 261 257 243 261 238 228 263 221 225 240 257 256 139 280 298 310 283 307 315 350 340 349 350 356 357 357 2 2
189 190 196 202 214 223 232 240 240 250 263 258 256 266 269 267 256 239 242 243 246 258 273 201 266 274 289 293 295 337 334 342 349 350 351 350 358 0
182 188 195 205 221 229 238 240 234 225 249 250 252 257 264 268 295 264 253 254 254 252 243 233 243 270 262 274 291 306 326 338 346 344 346 351 351 355
192 192 204 213 222 230 210 228 222 228 242 252 260 262 269 261 259 267 269 271 273 268 224 227 229 243 275 276 282 288 295 301 343 341 332 331 341 358
168 179 200 207 211 214 215 220 224 225 233 241 249 254 254 258 261 263 260 260 253 271 248 205 227 249 265 269 274 269 283 280 292 320 320 310 315 340
185 201 205 208 215 215 218 219 218 220 230 234 242 247 251 257 265 265 256 249 256 258 258 245 243 262 242 234 230 269 269 273 283 287 291 289 282 312
212 211 211 202 209 211 212 212 217 212 197 236 243 246 251 257 252 255 256 252 252 258 260 242 242 245 268 268 146 232 266 262 279 270 255 260 287 285
218 209 209 204 204 201 201 208 215 217 221 227 227 229 231 246 250 251 251 254 260 267 267 245 240 239 243 284 315 289 219 262 260 279 277 272 268 283
200 208 208 198 197 193 196 200 205 216 224 222 221 219 215 224 237 244 243 238 253 255 263 264 306 32 0 272 253 252 244 230 236 259 287 280 286 275
202 200 193 194 193 189 189 195 201 210 217 215 216 217 213 216 233 236 238 242 231 250 263 277 216 229 234 241 267 281 276 273 260 256 250 242 266 272
197 191 186 188 188 186 189 194 205 216 215 207 208 211 206 210 220 235 237 235 247 245 257 267 254 234 251 261 273 278 275 281 288 284 258 244 247 252